Location: Nitra
(0.0000°N, 18.0833°E)
Time: 13:33:13
(UTC+01:00)

ARIANE 6 FM1 Upper Stage - Visible Passes

Search period start: 21 January 2026 00:00
Search period end: 31 January 2026 00:00
Orbit: 522 x 610 km, 62.0° (Epoch: 20 January)

Date Brightness Start Highest point End Pass type
(mag) Time Alt. Az. Time Alt. Az. Time Alt. Az.
21 Jan 4.0 04:44:27 10° N 04:48:12 36° ENE 04:52:03 10° SE visible
22 Jan 2.9 04:45:31 19° NNW 04:48:19 67° ENE 04:52:29 10° SSE visible
23 Jan 2.6 04:46:40 32° NW 04:48:26 66° WSW 04:52:36 10° SSE visible
24 Jan 3.3 04:47:46 33° W 04:48:33 36° WSW 04:52:26 10° S visible
25 Jan 4.1 04:48:49 21° WSW 04:48:49 21° WSW 04:51:52 10° SSW visible
26 Jan 4.9 04:49:47 11° SW 04:49:47 11° SW 04:50:32 10° SW visible
